Find CATCH-1

NORAD ID: 60089 Int'l Des: 2024-116 Owner: CAS Country: CN operational
LEOCIRCULAR

Current View

Loading 3D Globe...

About CATCH-1

Description loading...

Upcoming Passes

Passes for default location (London). Set your location on the main map for personalized predictions.

Altitude History

Loading altitude history...

Two-Line Element Set

1 60089U 24116B 26149.59304925 .00001639 00000-0 17993-3 0 9997
2 60089 28.9946 235.0094 0005028 205.9238 154.1103 14.83496820104836
Epoch: May 29, 2026 • Age: 19 hours

Current Status

Altitude 620.5 km
Velocity 7.55 km/s
Sub-Earth Point -10.03°S, 179.23°W
Launch Date Jun 22, 2024
Age 1.9 years
Type other

Technical Details

Classification Payload
Mass 20.00 kg
Dry Mass 20.00 kg
Total Mass 20.00 kg
Length 0.30 m
Diameter 0.20 m
Span 0.50 m
Shape Box+2 pan + boom
Manufacturer IMICAS
Bus Type Hunter
Phase Status In Orbit
Owner/State CAS/CN

Most Searched